Weather History for KMMH - June, 2013

Change the Weather History Date:

Friday, June 21, 2013

  Actual Average (KBIH) Record (KBIH)
Temperature  
Mean Temperature 54 °F 73 °F  
Max Temperature 73 °F 94 °F 108 °F (1961)
Min Temperature 35 °F 52 °F 40 °F (1995)
Degree Days  
Heating Degree Days 11 0  
Month to date heating degree days 17  
Since 1 June heating degree days 17  
Since 1 July heating degree days 4175  
Cooling Degree Days 0 8  
Month to date cooling degree days 128  
Year to date cooling degree days 196  
Since 1 June cooling degree days 128  
Growing Degree Days 4 (Base 50)    
Moisture  
Dew Point 25 °F    
Average Humidity 33    
Maximum Humidity 60    
Minimum Humidity 10    
Precipitation  
Precipitation 0.00 in 0.00 in 0.03 in (1944)
Month to date precipitation 0.14  
Year to date precipitation 3.02  
Snow  
Snow 0.00 in 0.00 in - ()
Month to date snowfall 0.0  
Since 1 June snowfall 0.0  
Since 1 July snowfall 8.0  
Snow Depth -    
Sea Level Pressure  
Sea Level Pressure 30.12 in    
Wind  
Wind Speed 9 mph (WNW)    
Max Wind Speed 25 mph    
Max Gust Speed 36 mph    
Visibility 10 miles    
Events      
T = Trace of Precipitation, MM = Missing Value Source: NWS Daily Summary

Daily Weather History Graph

Daily Weather History Graph

Search for Another Location

Airport or City:

Trip Planner

Search our weather history database for the weather conditions in past years. The results will help you decide how hot, cold, wet, or windy it might be!

Date:

Astronomy

Jun. 21, 2013 Rise Set
Actual Time 5:34 AM PDT 8:20 PM PDT
Civil Twilight 5:02 AM PDT 8:51 PM PDT
Nautical Twilight 4:23 AM PDT 9:30 PM PDT
Astronomical Twilight 3:39 AM PDT 10:14 PM PDT
Moon 6:37 PM PDT (6/21) 3:52 AM PDT (6/21)
Length of Visible Light 15h 48m
Length of Day
14h 46m
Waxing Gibbous, 96% of the Moon is Illuminated
Jun 21
Waxing Gibbous
Jun 23
Full
Jun 29
Last Quarter
Jul 8
New
Jul 15
First Quarter

Hourly Weather History & Observations

Time (PDT) Temp. Windchill Dew Point Humidity Pressure Visibility Wind Dir Wind Speed Gust Speed Precip Events Conditions
12:15 AM 48.2 °F - 30.2 °F 50% 30.12 in 10.0 mi SE 4.6 mph - N/A   Clear
12:35 AM 44.6 °F 43.1 °F 28.4 °F 53% 30.13 in 10.0 mi NNW 3.5 mph - N/A   Clear
12:55 AM 39.2 °F 37.0 °F 24.8 °F 56% 30.13 in 10.0 mi West 3.5 mph - N/A   Clear
1:15 AM 37.4 °F 32.8 °F 24.8 °F 60% 30.13 in 10.0 mi NNW 5.8 mph - N/A   Clear
1:35 AM 37.4 °F - 24.8 °F 60% 30.12 in 10.0 mi Calm Calm - N/A   Clear
1:55 AM 37.4 °F 32.8 °F 24.8 °F 60% 30.12 in 10.0 mi NW 5.8 mph - N/A   Clear
2:15 AM 41.0 °F - 23.0 °F 49% 30.12 in 10.0 mi Calm Calm - N/A   Clear
2:35 AM 39.2 °F - 23.0 °F 52% 30.12 in 10.0 mi Calm Calm - N/A   Clear
2:55 AM 41.0 °F - 21.2 °F 45% 30.11 in 10.0 mi Calm Calm - N/A   Clear
3:15 AM 41.0 °F - 21.2 °F 45% 30.11 in 10.0 mi Calm Calm - N/A   Clear
3:35 AM 35.6 °F 29.9 °F 21.2 °F 56% 30.10 in 10.0 mi NNW 6.9 mph - N/A   Clear
3:55 AM 41.0 °F - 21.2 °F 45% 30.10 in 10.0 mi Calm Calm - N/A   Clear
4:15 AM 42.8 °F 41.1 °F 21.2 °F 42% 30.10 in 10.0 mi South 3.5 mph - N/A   Clear
4:35 AM 39.2 °F 37.0 °F 21.2 °F 49% 30.11 in 10.0 mi West 3.5 mph - N/A   Clear
4:55 AM 44.6 °F 38.8 °F 21.2 °F 39% 30.11 in 10.0 mi West 11.5 mph - N/A   Clear
5:15 AM 42.8 °F 37.0 °F 23.0 °F 46% 30.12 in 10.0 mi WSW 10.4 mph - N/A   Clear
5:35 AM 44.6 °F 39.2 °F 23.0 °F 43% 30.13 in 10.0 mi WSW 10.4 mph - N/A   Clear
5:55 AM 44.6 °F 38.4 °F 24.8 °F 46% 30.14 in 10.0 mi West 12.7 mph - N/A   Clear
6:15 AM 44.6 °F 38.4 °F 24.8 °F 46% 30.14 in 10.0 mi West 12.7 mph - N/A   Clear
6:35 AM 46.4 °F 40.7 °F 24.8 °F 43% 30.15 in 10.0 mi West 12.7 mph - N/A   Clear
6:55 AM 46.4 °F 41.1 °F 24.8 °F 43% 30.15 in 10.0 mi West 11.5 mph - N/A   Clear
7:15 AM 48.2 °F - 24.8 °F 40% 30.15 in 10.0 mi West 11.5 mph - N/A   Clear
7:35 AM 50.0 °F - 24.8 °F 37% 30.15 in 10.0 mi West 10.4 mph - N/A   Clear
7:55 AM 51.8 °F - 24.8 °F 35% 30.15 in 10.0 mi WNW 9.2 mph - N/A   Clear
8:15 AM 51.8 °F - 24.8 °F 35% 30.15 in 10.0 mi West 10.4 mph - N/A   Clear
8:35 AM 55.4 °F - 24.8 °F 31% 30.16 in 10.0 mi WNW 10.4 mph 17.3 mph N/A   Clear
8:55 AM 55.4 °F - 24.8 °F 31% 30.15 in 10.0 mi WNW 8.1 mph - N/A   Clear
9:15 AM 57.2 °F - 24.8 °F 29% 30.15 in 10.0 mi NW 5.8 mph - N/A   Clear
9:35 AM 59.0 °F - 24.8 °F 27% 30.15 in 10.0 mi West 3.5 mph - N/A   Clear
9:55 AM 59.0 °F - 24.8 °F 27% 30.14 in 10.0 mi Calm Calm - N/A   Clear
10:15 AM 60.8 °F - 24.8 °F 25% 30.14 in 10.0 mi NW 4.6 mph - N/A   Clear
10:35 AM 62.6 °F - 23.0 °F 22% 30.14 in 10.0 mi Calm Calm - N/A   Clear
10:55 AM 62.6 °F - 23.0 °F 22% 30.13 in 10.0 mi Calm Calm - N/A   Clear
11:15 AM 66.2 °F - 23.0 °F 19% 30.12 in 10.0 mi ESE 10.4 mph 18.4 mph N/A   Clear
11:35 AM 68.0 °F - 21.2 °F 17% 30.12 in 10.0 mi SE 11.5 mph - N/A   Clear
11:55 AM 69.8 °F - 19.4 °F 15% 30.12 in 10.0 mi ESE 9.2 mph - N/A   Clear
12:15 PM 71.6 °F - 19.4 °F 14% 30.11 in 10.0 mi East 10.4 mph - N/A   Clear
12:35 PM 71.6 °F - 17.6 °F 13% 30.11 in 10.0 mi ESE 10.4 mph 20.7 mph N/A   Clear
12:55 PM 71.6 °F - 14.0 °F 11% 30.11 in 10.0 mi WNW 4.6 mph 17.3 mph N/A   Clear
1:15 PM 73.4 °F - 14.0 °F 10% 30.11 in 10.0 mi NW 15.0 mph 24.2 mph N/A   Clear
1:35 PM 73.4 °F - 15.8 °F 11% 30.11 in 10.0 mi WNW 24.2 mph 32.2 mph N/A   Clear
1:55 PM 73.4 °F - 17.6 °F 12% 30.10 in 10.0 mi WNW 21.9 mph 29.9 mph N/A   Clear
2:15 PM 73.4 °F - 19.4 °F 13% 30.10 in 10.0 mi WNW 21.9 mph 31.1 mph N/A   Clear
2:35 PM 73.4 °F - 21.2 °F 14% 30.10 in 10.0 mi WNW 20.7 mph 31.1 mph N/A   Clear
2:55 PM 73.4 °F - 23.0 °F 15% 30.09 in 10.0 mi WNW 23.0 mph 33.4 mph N/A   Clear
3:15 PM 73.4 °F - 23.0 °F 15% 30.09 in 10.0 mi WNW 25.3 mph 35.7 mph N/A   Clear
3:35 PM 73.4 °F - 24.8 °F 16% 30.09 in 10.0 mi WNW 24.2 mph 33.4 mph N/A   Clear
3:55 PM 73.4 °F - 26.6 °F 18% 30.09 in 10.0 mi WNW 20.7 mph 28.8 mph N/A   Clear
4:15 PM 73.4 °F - 26.6 °F 18% 30.09 in 10.0 mi WNW 21.9 mph 29.9 mph N/A   Clear
4:35 PM 73.4 °F - 23.0 °F 15% 30.08 in 10.0 mi WNW 23.0 mph 28.8 mph N/A   Clear
4:55 PM 73.4 °F - 28.4 °F 19% 30.08 in 10.0 mi NW 21.9 mph 28.8 mph N/A   Clear
5:15 PM 71.6 °F - 26.6 °F 19% 30.08 in 10.0 mi WNW 19.6 mph 26.5 mph N/A   Clear
5:35 PM 71.6 °F - 26.6 °F 19% 30.08 in 10.0 mi WNW 18.4 mph 26.5 mph N/A   Clear
5:55 PM 71.6 °F - 28.4 °F 20% 30.08 in 10.0 mi WNW 19.6 mph 28.8 mph N/A   Clear
6:15 PM 69.8 °F - 30.2 °F 23% 30.08 in 10.0 mi WNW 20.7 mph 26.5 mph N/A   Clear
6:35 PM 68.0 °F - 30.2 °F 24% 30.09 in 10.0 mi WNW 17.3 mph 23.0 mph N/A   Clear
6:55 PM 68.0 °F - 30.2 °F 24% 30.09 in 10.0 mi NW 16.1 mph 23.0 mph N/A   Clear
7:15 PM 66.2 °F - 32.0 °F 28% 30.10 in 10.0 mi WNW 16.1 mph 24.2 mph N/A   Clear
7:35 PM 64.4 °F - 32.0 °F 30% 30.09 in 10.0 mi NW 12.7 mph 23.0 mph N/A   Clear
7:55 PM 62.6 °F - 32.0 °F 32% 30.10 in 10.0 mi WNW 9.2 mph 23.0 mph N/A   Clear
8:15 PM 59.0 °F - 32.0 °F 36% 30.10 in 10.0 mi WNW 13.8 mph 24.2 mph N/A   Clear
8:35 PM 57.2 °F - 33.8 °F 41% 30.11 in 10.0 mi NW 12.7 mph - N/A   Clear
8:55 PM 57.2 °F - 33.8 °F 41% 30.12 in 10.0 mi WNW 12.7 mph 19.6 mph N/A   Clear
9:15 PM 57.2 °F - 32.0 °F 38% 30.13 in 10.0 mi WNW 11.5 mph 18.4 mph N/A   Clear
9:35 PM 55.4 °F - 32.0 °F 41% 30.14 in 10.0 mi West 12.7 mph - N/A   Clear
9:55 PM 55.4 °F - 32.0 °F 41% 30.15 in 10.0 mi West 9.2 mph - N/A   Clear
10:15 PM 55.4 °F - 32.0 °F 41% 30.15 in 10.0 mi WNW 15.0 mph - N/A   Clear
10:35 PM 53.6 °F - 32.0 °F 44% 30.15 in 10.0 mi NW 10.4 mph - N/A   Clear
10:55 PM 53.6 °F - 32.0 °F 44% 30.16 in 10.0 mi WNW 11.5 mph - N/A   Clear
11:15 PM 53.6 °F - 30.2 °F 41% 30.16 in 10.0 mi WNW 10.4 mph - N/A   Clear
11:35 PM 51.8 °F - 28.4 °F 41% 30.17 in 10.0 mi West 11.5 mph 16.1 mph N/A   Clear
11:55 PM 50.0 °F - 26.6 °F 40% 30.17 in 10.0 mi West 9.2 mph - N/A   Clear